This demonstration page uses our WeatherBlox Daily Observations layout. Learn more.

Left ArrowRight Arrow

Hourly Observations for August 8, 2020

Temp ( °F °C ) Dew Point ( °F °C ) Humidity (%) Winds ( mph kmh ) Pressure ( in mb ) Visibility ( mi km ) Precip ( " mm )
12:52 am 00:52 Clear 75 23.9 67 19.4 76 76 SSE 9 15 30.05 1018 10 16 0.00 0.00
1:52 am 01:52 Partly Cloudy 74 23.3 67 19.4 79 79 SSE 8 13 30.05 1018 10 16 0.00 0.00
2:52 am 02:52 Mostly Cloudy 73 22.8 66 18.9 79 79 SSE 15 24 30.03 1017 10 16 0.00 0.00
3:52 am 03:52 Clear 73 22.8 66 18.9 79 79 SSE 12 19 30.03 1017 10 16 0.00 0.00
4:52 am 04:52 Mostly Clear 72 22.2 66 18.9 82 82 SSE 12 19 30.03 1017 10 16 0.00 0.00
5:52 am 05:52 Mostly Cloudy 72 22.2 67 19.4 84 84 SSE 10 17 30.05 1018 10 16 0.00 0.00
6:52 am 06:52 Mostly Sunny 71 21.7 68 20 90 90 S 6 9 30.09 1019 10 16 0.00 0.00
7:34 am 07:34 Mostly Cloudy with Nearby Thunderstorms 71 21.7 68 20 90 90 NW 7 11 30.11 1019 10 16 0.00 0.00
7:42 am 07:42 Mostly Cloudy with Thunderstorms 71 21.7 68 20 90 90 WNW 7 11 30.12 1020 10 16 0.00 0.00
7:52 am 07:52 Cloudy with Nearby Thunderstorms 71 21.7 68 20 90 90 WNW 5 7 30.12 1020 10 16 0.00 0.00
8:07 am 08:07 Mostly Cloudy with Light Rain 71 21.7 68 20 90 90 Calm 30.13 1020 10 16 0.00 0.00
8:20 am 08:20 Mostly Cloudy with Nearby Thunderstorms 71 21.7 69 20.6 94 94 Calm 30.13 1020 3 4 0.00 0.00
8:33 am 08:33 Cloudy with Rain 70 21.1 68 20 93 93 SE 8 13 30.12 1020 5 8 0.05 1.27
8:52 am 08:52 Cloudy with Light Rain 70 21.1 69 20.6 97 97 SSE 13 20 30.09 1019 4 6 0.09 2.29
9:52 am 09:52 Mostly Cloudy 73 22.8 70 21.1 90 90 SE 8 13 30.12 1020 9 14 0.03 0.76
10:52 am 10:52 Cloudy 75 23.9 72 22.2 90 90 SE 13 20 30.08 1019 10 16 0.00 0.00
11:52 am 11:52 Partly Cloudy 80 26.7 72 22.2 76 76 S 13 20 30.06 1018 10 16 0.00 0.00
12:52 pm 12:52 Sunny 83 28.3 73 22.8 72 72 SSE 14 22 30.04 1017 10 16 0.00 0.00
1:52 pm 13:52 Sunny 87 30.6 72 22.2 61 61 S 20 31 30.02 1017 10 16 0.00 0.00
2:52 pm 14:52 Sunny 88 31.1 73 22.8 61 61 SSW 18 30 30.00 1016 10 16 0.00 0.00
3:52 pm 15:52 Sunny 88 31.1 72 22.2 59 59 S 16 26 29.99 1016 10 16 0.00 0.00
4:52 pm 16:52 Sunny 87 30.6 72 22.2 61 61 S 18 30 29.99 1016 10 16 0.00 0.00
5:52 pm 17:52 Sunny 87 30.6 73 22.8 63 63 SSW 16 26 29.99 1016 10 16 0.00 0.00
6:52 pm 18:52 Sunny 86 30 73 22.8 65 65 S 13 20 29.99 1016 10 16 0.00 0.00
7:52 pm 19:52 Sunny 84 28.9 74 23.3 72 72 S 8 13 30.00 1016 10 16 0.00 0.00
8:52 pm 20:52 Clear 82 27.8 74 23.3 77 77 S 8 13 30.01 1016 10 16 0.00 0.00
9:52 pm 21:52 Clear 81 27.2 73 22.8 77 77 S 10 17 30.02 1017 10 16 0.00 0.00
10:52 pm 22:52 Clear 80 26.7 73 22.8 79 79 S 12 19 30.03 1017 10 16 0.00 0.00
11:52 pm 23:52 Clear 79 26.1 72 22.2 79 79 SSE 10 17 30.03 1017 10 16 0.00 0.00

Powered by AerisWeather